Location: ???????
(38.3360°N, 23.6977°E)
Time: 20:30:18
(UTC+00:00)

USA 215 - Pass Details

Date: 17 November 2025
Orbit: 1101 x 1106 km, 123.0° (Epoch: 10 December)

Event Time Altitude Azimuth Distance (km) Brightness Sun altitude
Rises 16:40:19 0° 138° (SE) 3,907 5.9 -17.5°
Reaches altitude 10° 16:42:47 10° 140° (SE) 2,953 5.2 -18.0°
Maximum altitude 16:49:19 76° 226° (SW) 1,138 3.4 -19.2°
Drops below altitude 10° 16:55:53 10° 312° (NW) 2,968 6.0 -20.5°
Sets 16:58:23 0° 314° (NW) 3,929 6.7 -21.0°
